contact:dominique.lefevre@mio.osupytheas.fr, maurice.libes@osupytheas.fr, didier.mallarino@osupytheas.fr
Project:EMSO http://www.emso-fr.org/EMSO-France
Depth: 2436.0 m
Title:EMSO Ligure Ouest : Data MII capteur AQUADOPP
Date,Latitude,Longitude,X_East,Y_North,Z_Up,Amplitude_X,Amplitude_Y,Amplitude_Z,Batterie,SoundSpeed,Heading,Pitch,Roll,Pressure,TIS,Speed,Direction
, degrees North, degrees East, m.s-1, m.s-1,m.s-1, 1, 1, 1, Volt, m.s-1, degree, degree, degree, dbar, degree_C, m.s-1, degree
2023-07-24T00:04:03,42.805,6.029,-0.012,0.041,-0.015,102.0,102.0,101.0,13.3,1505.2,345.3,-0.8,1.8,2471.492,13.28,0.042,343.7
2023-07-24T00:07:03,42.805,6.029,-0.033,0.019,-0.05,103.0,103.0,101.0,13.4,1505.2,336.5,-0.7,1.8,2471.495,13.29,0.038,299.9
2023-07-24T00:10:03,42.805,6.029,-0.021,0.017,-0.056,101.0,103.0,101.0,13.4,1505.2,344.7,-0.8,1.8,2471.503,13.29,0.027,309.0
2023-07-24T00:13:03,42.805,6.029,-0.017,0.036,0.005,103.0,101.0,101.0,13.4,1505.2,349.9,-0.8,1.8,2471.468,13.29,0.039,334.7
2023-07-24T00:16:03,42.805,6.029,-0.026,0.028,-0.03,102.0,101.0,101.0,13.4,1505.2,339.5,-0.7,1.8,2471.486,13.29,0.038,317.1
2023-07-24T00:19:03,42.805,6.029,-0.034,0.017,-0.055,101.0,103.0,101.0,13.4,1505.2,341.2,-0.7,1.8,2471.483,13.29,0.038,296.6
2023-07-24T00:22:03,42.805,6.029,-0.054,0.022,-0.022,102.0,101.0,101.0,13.3,1505.2,325.3,-0.7,1.8,2471.455,13.29,0.058,292.2
2023-07-24T00:25:03,42.805,6.029,-0.009,0.009,-0.027,102.0,101.0,102.0,13.3,1505.2,344.0,-0.8,1.8,2471.445,13.29,0.012,315.0
2023-07-24T00:28:03,42.805,6.029,-0.02,0.039,-0.001,102.0,102.0,101.0,13.4,1505.2,340.7,-0.7,1.8,2471.448,13.29,0.043,332.9
2023-07-24T00:31:03,42.805,6.029,-0.039,0.024,-0.034,102.0,102.0,101.0,13.3,1505.2,339.7,-0.8,1.8,2471.443,13.29,0.045,301.6
2023-07-24T00:34:03,42.805,6.029,-0.061,0.018,-0.076,102.0,102.0,101.0,13.4,1505.2,327.2,-0.8,1.8,2471.471,13.29,0.063,286.4
2023-07-24T00:37:03,42.805,6.029,-0.049,0.006,-0.035,102.0,102.0,101.0,13.4,1505.2,330.5,-0.8,1.8,2471.418,13.29,0.049,277.0
2023-07-24T00:40:03,42.805,6.029,-0.016,0.026,-0.021,101.0,103.0,101.0,13.4,1505.2,333.4,-0.8,1.8,2471.462,13.29,0.03,328.4
2023-07-24T00:43:03,42.805,6.029,-0.019,0.034,-0.016,102.0,102.0,102.0,13.4,1505.2,341.9,-0.8,1.8,2471.452,13.29,0.038,330.8
2023-07-24T00:46:03,42.805,6.029,-0.035,0.027,-0.017,102.0,102.0,103.0,13.3,1505.2,329.7,-0.8,1.8,2471.441,13.29,0.044,307.7
2023-07-24T00:49:03,42.805,6.029,-0.022,0.032,-0.036,101.0,102.0,101.0,13.4,1505.2,351.5,-0.8,1.8,2471.466,13.29,0.038,325.5
2023-07-24T00:52:03,42.805,6.029,-0.045,0.024,-0.074,100.0,103.0,102.0,13.3,1505.2,337.4,-0.8,1.8,2471.464,13.29,0.051,298.1
2023-07-24T00:55:03,42.805,6.029,-0.047,0.045,-0.045,102.0,102.0,101.0,13.4,1505.2,334.2,-0.7,1.8,2471.455,13.29,0.065,313.8
2023-07-24T00:58:03,42.805,6.029,-0.062,0.042,-0.014,102.0,102.0,101.0,13.3,1505.2,326.5,-0.8,1.8,2471.427,13.29,0.074,304.1
2023-07-24T02:04:03,42.805,6.029,-0.013,0.015,-0.03,102.0,102.0,101.0,13.4,1505.2,344.5,-0.8,1.8,2471.947,13.28,0.019,319.1
2023-07-24T02:07:03,42.805,6.029,-0.04,0.025,-0.045,102.0,101.0,101.0,13.3,1505.2,327.5,-0.8,1.8,2471.819,13.28,0.047,302.0
2023-07-24T02:10:03,42.805,6.029,-0.013,0.019,-0.009,101.0,102.0,101.0,13.3,1505.2,323.4,-0.8,1.8,2471.719,13.28,0.023,325.6
2023-07-24T02:13:03,42.805,6.029,-0.022,0.023,-0.052,102.0,101.0,101.0,13.4,1505.2,328.8,-0.7,1.8,2471.612,13.28,0.031,316.3
2023-07-24T02:16:03,42.805,6.029,-0.027,0.022,0.007,101.0,102.0,102.0,13.4,1505.2,341.9,-0.8,1.8,2471.602,13.28,0.034,309.2
2023-07-24T02:19:03,42.805,6.029,-0.025,0.016,-0.023,102.0,102.0,101.0,13.4,1505.2,334.7,-0.7,1.8,2471.502,13.29,0.029,302.6
2023-07-24T02:22:03,42.805,6.029,-0.035,0.036,-0.051,101.0,103.0,101.0,13.4,1505.2,342.7,-0.8,1.8,2471.459,13.29,0.05,315.8
2023-07-24T02:25:03,42.805,6.029,-0.037,0.026,-0.052,101.0,103.0,101.0,13.3,1505.2,324.0,-0.7,1.8,2471.463,13.29,0.045,305.1
2023-07-24T02:28:03,42.805,6.029,-0.035,0.041,-0.017,102.0,101.0,101.0,13.4,1505.2,336.1,-0.8,1.8,2471.392,13.29,0.053,319.5
2023-07-24T02:31:03,42.805,6.029,-0.002,0.021,-0.038,102.0,101.0,101.0,13.4,1505.2,333.9,-0.8,1.8,2471.413,13.29,0.021,354.6
2023-07-24T02:34:03,42.805,6.029,-0.035,0.037,0.0,103.0,102.0,101.0,13.4,1505.2,324.6,-0.8,1.8,2471.402,13.29,0.05,316.6
2023-07-24T02:37:03,42.805,6.029,-0.047,0.04,-0.035,101.0,103.0,102.0,13.4,1505.2,333.4,-0.7,1.9,2471.387,13.29,0.061,310.4
2023-07-24T02:40:03,42.805,6.029,-0.022,0.018,-0.036,103.0,103.0,101.0,13.4,1505.2,345.6,-0.7,1.8,2471.396,13.29,0.028,309.3
2023-07-24T02:43:03,42.805,6.029,-0.042,0.024,-0.016,102.0,102.0,101.0,13.4,1505.2,329.9,-0.8,1.8,2471.387,13.29,0.048,299.7
2023-07-24T02:46:03,42.805,6.029,-0.03,0.022,-0.028,102.0,102.0,101.0,13.3,1505.2,351.8,-0.7,1.8,2471.373,13.29,0.037,306.3
2023-07-24T02:49:03,42.805,6.029,-0.011,0.02,-0.008,103.0,102.0,101.0,13.4,1505.2,336.0,-0.8,1.8,2471.343,13.29,0.022,331.2
2023-07-24T02:52:03,42.805,6.029,-0.015,0.038,-0.028,102.0,102.0,102.0,13.3,1505.2,341.9,-0.7,1.8,2471.356,13.29,0.04,338.5
2023-07-24T02:55:03,42.805,6.029,-0.038,0.029,-0.035,103.0,102.0,101.0,13.3,1505.2,340.0,-0.7,1.8,2471.344,13.29,0.047,307.3
2023-07-24T02:58:03,42.805,6.029,-0.009,0.044,-0.016,103.0,103.0,101.0,13.4,1505.2,354.2,-0.8,1.8,2471.345,13.29,0.044,348.4
2023-07-24T03:04:03,42.805,6.029,-0.033,0.053,-0.047,102.0,103.0,101.0,13.4,1505.2,354.4,-0.8,1.8,2471.416,13.29,0.062,328.1
2023-07-24T03:07:03,42.805,6.029,-0.003,0.026,-0.003,103.0,102.0,102.0,13.3,1505.2,350.5,-0.8,1.8,2471.413,13.29,0.026,353.4
2023-07-24T03:10:03,42.805,6.029,-0.029,0.019,-0.047,102.0,103.0,101.0,13.3,1505.2,329.6,-0.8,1.8,2471.394,13.29,0.034,303.2
2023-07-24T03:13:03,42.805,6.029,-0.013,0.006,-0.028,102.0,102.0,103.0,13.4,1505.2,340.8,-0.7,1.8,2471.367,13.29,0.014,294.8
2023-07-24T03:16:03,42.805,6.029,-0.04,0.029,-0.044,103.0,102.0,101.0,13.4,1505.2,335.6,-0.8,1.8,2471.36,13.29,0.049,305.9
2023-07-24T03:19:03,42.805,6.029,-0.039,0.046,0.013,103.0,102.0,101.0,13.4,1505.2,333.9,-0.7,1.8,2471.361,13.29,0.06,319.7
2023-07-24T03:22:03,42.805,6.029,-0.015,0.035,0.0,103.0,102.0,101.0,13.4,1505.2,341.1,-0.8,1.8,2471.326,13.29,0.038,336.8
2023-07-24T03:25:03,42.805,6.029,-0.021,0.04,-0.006,102.0,103.0,102.0,13.4,1505.2,349.9,-0.8,1.8,2471.326,13.29,0.045,332.3
2023-07-24T03:28:03,42.805,6.029,-0.041,0.03,-0.064,102.0,102.0,101.0,13.4,1505.2,332.6,-0.8,1.8,2471.316,13.29,0.05,306.2
2023-07-24T03:31:03,42.805,6.029,-0.035,0.021,-0.043,102.0,102.0,101.0,13.3,1505.2,345.4,-0.8,1.8,2471.346,13.29,0.04,301.0
2023-07-24T03:34:03,42.805,6.029,-0.027,0.043,0.0,101.0,103.0,102.0,13.3,1505.2,350.3,-0.7,1.8,2471.34,13.29,0.05,327.9
2023-07-24T03:37:03,42.805,6.029,-0.038,0.021,-0.048,102.0,102.0,102.0,13.3,1505.2,346.2,-0.8,1.8,2471.34,13.29,0.043,298.9
2023-07-24T03:40:03,42.805,6.029,-0.032,0.032,-0.007,101.0,103.0,101.0,13.4,1505.2,328.5,-0.7,1.8,2471.367,13.29,0.045,315.0
2023-07-24T03:43:03,42.805,6.029,-0.021,0.031,-0.035,102.0,102.0,101.0,13.4,1505.2,343.9,-0.8,1.8,2471.358,13.29,0.037,325.9
2023-07-24T03:46:03,42.805,6.029,-0.016,0.07,-0.01,104.0,100.0,101.0,13.3,1505.2,354.5,-0.8,1.8,2471.32,13.29,0.071,347.1
2023-07-24T03:49:03,42.805,6.029,-0.034,0.012,-0.041,101.0,101.0,102.0,13.4,1505.2,333.9,-0.7,1.8,2471.368,13.29,0.036,289.4
2023-07-24T03:52:03,42.805,6.029,-0.036,0.034,-0.038,102.0,100.0,103.0,13.4,1505.2,332.3,-0.8,1.8,2471.348,13.29,0.049,313.4
2023-07-24T03:55:03,42.805,6.029,-0.039,0.008,-0.065,101.0,102.0,101.0,13.4,1505.2,345.0,-0.8,1.8,2471.293,13.29,0.039,281.6
2023-07-24T03:58:03,42.805,6.029,0.0,0.007,-0.034,102.0,102.0,102.0,13.4,1505.2,352.8,-0.8,1.8,2471.351,13.29,0.007,0.0
2023-07-24T04:01:03,42.805,6.029,-0.012,0.048,-0.012,102.0,102.0,101.0,13.4,1505.2,348.9,-0.8,1.8,2471.34,13.29,0.049,346.0
2023-07-24T04:04:03,42.805,6.029,-0.032,0.047,0.0,102.0,102.0,101.0,13.4,1505.2,337.7,-0.8,1.8,2471.352,13.29,0.056,325.8
2023-07-24T04:07:03,42.805,6.029,-0.025,0.056,0.007,102.0,102.0,101.0,13.4,1505.2,350.9,-0.8,1.8,2471.339,13.29,0.061,335.9
2023-07-24T04:10:03,42.805,6.029,-0.027,0.013,-0.009,101.0,102.0,102.0,13.3,1505.2,323.1,-0.8,1.8,2471.344,13.29,0.029,295.7
2023-07-24T04:13:03,42.805,6.029,-0.034,0.04,-0.026,102.0,102.0,101.0,13.4,1505.2,338.8,-0.8,1.8,2471.309,13.29,0.052,319.6
2023-07-24T04:16:03,42.805,6.029,-0.033,0.036,-0.051,102.0,102.0,101.0,13.4,1505.2,351.8,-0.8,1.8,2471.294,13.29,0.048,317.5
2023-07-24T04:19:03,42.805,6.029,-0.026,0.009,-0.013,102.0,103.0,100.0,13.3,1505.2,326.8,-0.7,1.8,2471.344,13.29,0.027,289.1
2023-07-24T04:22:03,42.805,6.029,-0.032,0.004,-0.054,101.0,101.0,101.0,13.4,1505.2,334.4,-0.8,1.8,2471.314,13.29,0.032,277.1
2023-07-24T04:25:03,42.805,6.029,-0.01,0.02,-0.025,101.0,101.0,101.0,13.4,1505.2,338.8,-0.8,1.8,2471.308,13.29,0.022,333.4
2023-07-24T04:28:03,42.805,6.029,-0.027,0.035,-0.027,101.0,103.0,101.0,13.4,1505.2,346.5,-0.8,1.8,2471.311,13.29,0.044,322.3
2023-07-24T04:31:03,42.805,6.029,-0.017,0.019,-0.031,103.0,101.0,100.0,13.4,1505.2,334.6,-0.7,1.8,2471.349,13.29,0.025,318.2
2023-07-24T04:34:03,42.805,6.029,-0.023,0.032,-0.031,102.0,101.0,103.0,13.4,1505.2,334.6,-0.8,1.8,2471.292,13.29,0.039,324.3
2023-07-24T04:37:03,42.805,6.029,-0.021,0.038,-0.04,102.0,102.0,101.0,13.4,1505.2,343.4,-0.8,1.8,2471.32,13.29,0.043,331.1
2023-07-24T04:40:03,42.805,6.029,-0.007,0.011,-0.031,102.0,103.0,101.0,13.4,1505.2,353.0,-0.8,1.8,2471.339,13.29,0.013,327.5
2023-07-24T04:43:03,42.805,6.029,-0.006,0.017,0.006,102.0,103.0,102.0,13.4,1505.2,342.3,-0.8,1.8,2471.332,13.29,0.018,340.6
2023-07-24T04:46:03,42.805,6.029,-0.012,0.011,-0.029,102.0,102.0,101.0,13.4,1505.2,330.1,-0.8,1.8,2471.319,13.29,0.016,312.5
2023-07-24T04:49:03,42.805,6.029,-0.022,0.024,-0.028,102.0,101.0,101.0,13.4,1505.2,346.4,-0.7,1.8,2471.304,13.29,0.032,317.5
2023-07-24T04:52:03,42.805,6.029,-0.01,0.02,-0.029,102.0,103.0,101.0,13.4,1505.2,341.9,-0.8,1.8,2471.351,13.29,0.022,333.4
2023-07-24T04:55:03,42.805,6.029,-0.009,0.034,-0.037,102.0,102.0,101.0,13.4,1505.2,351.5,-0.8,1.8,2471.311,13.29,0.035,345.2
2023-07-24T04:58:03,42.805,6.029,-0.025,0.006,-0.045,103.0,102.0,101.0,13.4,1505.2,326.3,-0.8,1.8,2471.345,13.29,0.025,283.5
2023-07-24T06:04:03,42.805,6.029,-0.022,0.027,-0.039,103.0,101.0,101.0,13.4,1505.2,338.8,-0.8,1.8,2471.854,13.28,0.034,320.8
2023-07-24T06:07:03,42.805,6.029,-0.032,0.022,-0.021,100.0,103.0,101.0,13.3,1505.2,323.6,-0.8,1.8,2471.716,13.28,0.038,304.5
2023-07-24T06:10:03,42.805,6.029,-0.011,0.025,-0.014,101.0,101.0,101.0,13.4,1505.2,333.9,-0.8,1.8,2471.632,13.28,0.027,336.3
2023-07-24T06:13:03,42.805,6.029,-0.024,0.035,-0.073,103.0,102.0,100.0,13.3,1505.2,344.2,-0.8,1.8,2471.564,13.28,0.042,325.6
2023-07-24T06:16:03,42.805,6.029,-0.022,0.023,-0.046,101.0,102.0,101.0,13.4,1505.2,333.4,-0.8,1.8,2471.504,13.29,0.031,316.3
2023-07-24T06:19:03,42.805,6.029,-0.026,0.025,-0.02,101.0,101.0,101.0,13.4,1505.2,323.1,-0.8,1.8,2471.452,13.29,0.036,313.9
2023-07-24T06:22:03,42.805,6.029,0.0,0.043,-0.028,101.0,104.0,101.0,13.4,1505.2,349.9,-0.7,1.8,2471.431,13.29,0.043,0.0
2023-07-24T06:25:03,42.805,6.029,-0.031,0.02,-0.005,103.0,102.0,100.0,13.3,1505.2,325.2,-0.8,1.8,2471.377,13.29,0.036,302.8
2023-07-24T06:28:03,42.805,6.029,-0.034,0.029,-0.03,102.0,101.0,101.0,13.4,1505.2,344.8,-0.8,1.8,2471.35,13.29,0.044,310.5
2023-07-24T06:31:03,42.805,6.029,-0.013,0.002,-0.049,101.0,102.0,101.0,13.3,1505.2,332.5,-0.8,1.8,2471.335,13.29,0.013,278.7
2023-07-24T06:34:03,42.805,6.029,-0.028,0.02,-0.045,102.0,102.0,101.0,13.4,1505.2,331.9,-0.8,1.8,2471.326,13.29,0.034,305.5
2023-07-24T06:37:03,42.805,6.029,-0.007,0.026,0.001,102.0,101.0,102.0,13.3,1505.2,328.8,-0.8,1.8,2471.3,13.29,0.026,344.9
2023-07-24T06:40:03,42.805,6.029,-0.023,0.02,-0.022,102.0,102.0,101.0,13.3,1505.2,341.9,-0.8,1.8,2471.339,13.29,0.03,311.0
2023-07-24T06:43:03,42.805,6.029,-0.027,0.049,-0.03,102.0,102.0,101.0,13.4,1505.2,352.6,-0.8,1.8,2471.321,13.29,0.055,331.1
2023-07-24T06:46:03,42.805,6.029,-0.031,0.024,-0.028,101.0,102.0,101.0,13.3,1505.2,323.9,-0.8,1.8,2471.3,13.29,0.039,307.7
2023-07-24T06:49:03,42.805,6.029,-0.046,0.049,0.014,101.0,102.0,101.0,13.4,1505.2,335.6,-0.8,1.8,2471.312,13.29,0.067,316.8
2023-07-24T06:52:03,42.805,6.029,-0.025,0.03,-0.021,103.0,100.0,101.0,13.3,1505.2,340.4,-0.8,1.8,2471.298,13.29,0.039,320.2
2023-07-24T06:55:03,42.805,6.029,-0.018,0.001,-0.043,102.0,101.0,101.0,13.4,1505.2,328.8,-0.8,1.8,2471.313,13.29,0.018,273.2
2023-07-24T06:58:03,42.805,6.029,-0.036,0.015,-0.045,102.0,102.0,102.0,13.4,1505.2,333.9,-0.7,1.8,2471.332,13.29,0.039,292.6
2023-07-24T07:04:03,42.805,6.029,0.008,0.016,-0.01,103.0,101.0,102.0,13.4,1505.2,352.8,-0.8,1.8,2471.342,13.29,0.017,26.6
2023-07-24T07:07:03,42.805,6.029,-0.012,0.023,-0.037,102.0,102.0,102.0,13.4,1505.2,348.9,-0.8,1.8,2471.381,13.29,0.025,332.4
2023-07-24T07:10:03,42.805,6.029,-0.021,0.017,-0.029,102.0,103.0,102.0,13.4,1505.2,329.8,-0.7,1.8,2471.333,13.29,0.027,309.0
2023-07-24T07:13:03,42.805,6.029,0.0,-0.003,-0.022,101.0,101.0,102.0,13.3,1505.2,332.5,-0.7,1.8,2471.335,13.29,0.003,180.0
2023-07-24T07:16:03,42.805,6.029,0.003,0.023,-0.013,102.0,102.0,101.0,13.4,1505.2,343.7,-0.8,1.8,2471.316,13.29,0.023,7.4
2023-07-24T07:19:03,42.805,6.029,-0.01,0.023,-0.019,101.0,102.0,102.0,13.3,1505.2,340.3,-0.8,1.8,2471.328,13.29,0.025,336.5
2023-07-24T07:22:03,42.805,6.029,-0.033,0.002,-0.056,101.0,102.0,101.0,13.4,1505.2,328.3,-0.7,1.8,2471.302,13.29,0.033,273.5
2023-07-24T07:25:03,42.805,6.029,-0.015,-0.005,-0.01,101.0,102.0,102.0,13.3,1505.2,335.1,-0.8,1.8,2471.326,13.29,0.015,251.6
2023-07-24T07:28:03,42.805,6.029,-0.018,0.006,-0.049,101.0,103.0,101.0,13.3,1505.2,325.7,-0.8,1.8,2471.335,13.29,0.018,288.4
2023-07-24T07:31:03,42.805,6.029,-0.026,0.002,-0.06,102.0,102.0,101.0,13.3,1505.2,325.7,-0.8,1.8,2471.339,13.29,0.026,274.4
2023-07-24T07:34:03,42.805,6.029,-0.036,0.018,-0.01,102.0,103.0,101.0,13.4,1505.2,325.5,-0.8,1.8,2471.343,13.29,0.04,296.6
2023-07-24T07:37:03,42.805,6.029,-0.01,0.007,-0.034,103.0,101.0,101.0,13.4,1505.2,349.1,-0.8,1.8,2471.339,13.29,0.012,305.0
2023-07-24T07:40:03,42.805,6.029,-0.028,0.02,-0.033,101.0,102.0,102.0,13.4,1505.2,330.3,-0.8,1.8,2471.3,13.29,0.034,305.5
2023-07-24T07:43:03,42.805,6.029,-0.036,-0.009,-0.074,103.0,101.0,101.0,13.4,1505.2,332.4,-0.8,1.8,2471.333,13.29,0.037,256.0
2023-07-24T07:46:03,42.805,6.029,-0.009,0.029,-0.025,102.0,101.0,101.0,13.3,1505.2,351.7,-0.8,1.8,2471.331,13.29,0.03,342.8
2023-07-24T07:49:03,42.805,6.029,-0.028,0.023,-0.036,102.0,104.0,101.0,13.4,1505.2,351.5,-0.8,1.8,2471.345,13.29,0.036,309.4
2023-07-24T07:52:03,42.805,6.029,-0.018,0.008,-0.047,102.0,101.0,101.0,13.4,1505.2,345.0,-0.8,1.8,2471.346,13.29,0.019,294.0
2023-07-24T07:55:03,42.805,6.029,-0.013,0.024,-0.022,102.0,102.0,102.0,13.4,1505.2,339.5,-0.7,1.8,2471.33,13.29,0.027,331.6
2023-07-24T07:58:03,42.805,6.029,0.006,0.015,-0.017,102.0,103.0,101.0,13.3,1505.2,334.4,-0.8,1.8,2471.323,13.29,0.016,21.8
2023-07-24T08:04:03,42.805,6.029,-0.021,0.042,-0.019,103.0,102.0,102.0,13.4,1505.2,353.0,-0.8,1.8,2471.368,13.29,0.046,333.4
2023-07-24T08:07:03,42.805,6.029,-0.032,0.018,-0.028,102.0,102.0,101.0,13.3,1505.2,340.4,-0.8,1.8,2471.437,13.29,0.036,299.4
2023-07-24T08:10:03,42.805,6.029,-0.004,0.015,-0.01,102.0,102.0,101.0,13.4,1505.2,348.6,-0.8,1.8,2471.418,13.29,0.015,345.1
2023-07-24T08:13:03,42.805,6.029,-0.024,0.004,-0.04,100.0,100.0,102.0,13.4,1505.2,323.3,-0.8,1.8,2471.385,13.29,0.024,279.5
2023-07-24T08:16:03,42.805,6.029,-0.025,0.019,-0.028,102.0,102.0,101.0,13.3,1505.2,322.3,-0.7,1.8,2471.363,13.29,0.031,307.2
2023-07-24T08:19:03,42.805,6.029,-0.041,0.023,-0.044,102.0,102.0,102.0,13.4,1505.2,339.8,-0.7,1.8,2471.386,13.29,0.047,299.3
2023-07-24T08:22:03,42.805,6.029,-0.014,0.023,-0.013,102.0,101.0,102.0,13.4,1505.2,330.5,-0.8,1.8,2471.392,13.29,0.026,328.7
2023-07-24T08:25:03,42.805,6.029,-0.013,0.011,-0.023,103.0,102.0,101.0,13.4,1505.2,332.0,-0.8,1.8,2471.386,13.29,0.017,310.2
2023-07-24T08:28:03,42.805,6.029,-0.029,0.024,-0.038,102.0,101.0,102.0,13.3,1505.2,338.6,-0.8,1.8,2471.343,13.29,0.037,309.6
2023-07-24T08:31:03,42.805,6.029,-0.011,0.004,-0.028,103.0,102.0,101.0,13.4,1505.2,328.8,-0.8,1.8,2471.375,13.29,0.011,290.0
2023-07-24T08:34:03,42.805,6.029,-0.01,0.025,-0.03,102.0,102.0,101.0,13.3,1505.2,343.4,-0.7,1.8,2471.368,13.29,0.026,338.2
2023-07-24T08:37:03,42.805,6.029,-0.003,0.015,-0.03,102.0,104.0,101.0,13.3,1505.2,333.9,-0.8,1.9,2471.367,13.29,0.015,348.7
2023-07-24T08:40:03,42.805,6.029,-0.008,-0.018,-0.072,103.0,102.0,101.0,13.4,1505.2,332.9,-0.8,1.8,2471.35,13.29,0.019,204.0
2023-07-24T08:43:03,42.805,6.029,-0.015,0.022,-0.041,102.0,103.0,101.0,13.4,1505.2,339.5,-0.8,1.8,2471.37,13.29,0.026,325.7
2023-07-24T08:46:03,42.805,6.029,-0.017,0.016,-0.01,102.0,102.0,102.0,13.4,1505.2,321.6,-0.8,1.8,2471.354,13.29,0.023,313.3
2023-07-24T08:49:03,42.805,6.029,0.001,-0.001,-0.039,102.0,102.0,101.0,13.4,1505.2,345.1,-0.8,1.8,2471.366,13.29,0.001,135.0
2023-07-24T08:52:03,42.805,6.029,-0.042,0.019,-0.017,102.0,102.0,101.0,13.4,1505.2,334.9,-0.8,1.8,2471.37,13.29,0.046,294.3
2023-07-24T08:55:03,42.805,6.029,-0.022,0.024,-0.048,103.0,102.0,101.0,13.4,1505.2,334.8,-0.8,1.8,2471.348,13.29,0.032,317.5
2023-07-24T08:58:03,42.805,6.029,-0.02,0.035,-0.027,102.0,102.0,101.0,13.4,1505.2,339.2,-0.7,1.8,2471.392,13.29,0.04,330.3
2023-07-24T09:04:03,42.805,6.029,-0.009,0.02,-0.019,103.0,102.0,102.0,13.4,1505.2,338.9,-0.8,1.8,2471.436,13.29,0.021,335.8
2023-07-24T09:07:03,42.805,6.029,-0.018,-0.001,-0.062,103.0,103.0,101.0,13.4,1505.2,350.3,-0.8,1.8,2471.425,13.29,0.018,266.8
2023-07-24T09:10:03,42.805,6.029,-0.015,0.026,-0.022,101.0,103.0,101.0,13.3,1505.2,325.0,-0.7,1.8,2471.428,13.29,0.03,330.0
2023-07-24T09:13:03,42.805,6.029,-0.001,0.032,0.022,101.0,102.0,102.0,13.3,1505.2,328.6,-0.8,1.8,2471.417,13.29,0.032,358.2
2023-07-24T09:16:03,42.805,6.029,-0.013,0.015,-0.013,102.0,102.0,101.0,13.4,1505.2,330.1,-0.7,1.8,2471.383,13.29,0.019,319.1
2023-07-24T09:19:03,42.805,6.029,-0.017,0.027,-0.071,102.0,102.0,101.0,13.3,1505.2,324.4,-0.8,1.8,2471.389,13.29,0.031,327.8
2023-07-24T09:22:03,42.805,6.029,-0.029,0.016,-0.028,103.0,102.0,101.0,13.4,1505.2,322.5,-0.8,1.8,2471.385,13.29,0.033,298.9
2023-07-24T09:25:03,42.805,6.029,0.0,0.012,-0.013,102.0,104.0,101.0,13.4,1505.2,344.8,-0.8,1.8,2471.385,13.29,0.012,0.0
2023-07-24T09:28:03,42.805,6.029,-0.015,0.003,-0.055,102.0,102.0,101.0,13.4,1505.2,337.2,-0.8,1.8,2471.391,13.29,0.015,281.3
2023-07-24T09:31:03,42.805,6.029,-0.021,0.019,-0.033,102.0,102.0,102.0,13.4,1505.2,334.8,-0.8,1.8,2471.416,13.29,0.028,312.1
2023-07-24T09:34:03,42.805,6.029,0.004,0.023,-0.016,103.0,102.0,101.0,13.4,1505.2,331.6,-0.8,1.8,2471.362,13.29,0.023,9.9
2023-07-24T09:37:03,42.805,6.029,0.006,0.005,-0.037,102.0,101.0,101.0,13.4,1505.2,326.8,-0.8,1.8,2471.407,13.29,0.007,50.2
2023-07-24T09:40:03,42.805,6.029,0.008,0.011,-0.037,101.0,102.0,101.0,13.4,1505.2,343.8,-0.7,1.8,2471.38,13.29,0.013,36.0
2023-07-24T09:43:03,42.805,6.029,-0.005,0.026,-0.031,104.0,99.0,101.0,13.4,1505.2,346.5,-0.7,1.8,2471.368,13.29,0.026,349.1
2023-07-24T09:46:03,42.805,6.029,-0.006,0.015,-0.031,103.0,102.0,103.0,13.4,1505.2,354.4,-0.8,1.8,2471.397,13.29,0.016,338.2
2023-07-24T09:49:03,42.805,6.029,-0.012,0.019,-0.029,101.0,101.0,102.0,13.4,1505.2,331.8,-0.8,1.8,2471.352,13.29,0.022,327.7
2023-07-24T09:52:03,42.805,6.029,-0.026,0.02,-0.022,102.0,102.0,101.0,13.4,1505.2,340.2,-0.7,1.8,2471.406,13.29,0.032,307.6
2023-07-24T09:55:03,42.805,6.029,-0.062,0.006,-0.042,101.0,103.0,102.0,13.4,1505.2,329.7,-0.8,1.8,2471.358,13.29,0.062,275.5
2023-07-24T09:58:03,42.805,6.029,-0.005,0.013,-0.054,101.0,102.0,101.0,13.4,1505.2,343.7,-0.8,1.8,2471.392,13.29,0.013,339.0
2023-07-24T10:04:03,42.805,6.029,-0.014,0.012,-0.039,101.0,105.0,100.0,13.3,1505.2,333.4,-0.8,1.8,2471.428,13.29,0.018,310.6
2023-07-24T10:07:03,42.805,6.029,-0.04,0.042,0.0,102.0,101.0,101.0,13.4,1505.2,330.9,-0.7,1.8,2471.424,13.29,0.057,316.4
2023-07-24T10:10:03,42.805,6.029,-0.026,0.031,0.013,101.0,105.0,101.0,13.3,1505.2,326.0,-0.8,1.8,2471.442,13.29,0.04,320.0
2023-07-24T10:13:03,42.805,6.029,0.0,0.01,-0.019,103.0,101.0,101.0,13.4,1505.2,343.0,-0.8,1.8,2471.445,13.29,0.01,0.0
2023-07-24T10:16:03,42.805,6.029,-0.017,0.0,-0.025,102.0,102.0,101.0,13.4,1505.2,332.9,-0.8,1.8,2471.405,13.29,0.017,270.0
2023-07-24T10:19:03,42.805,6.029,-0.011,0.023,-0.027,101.0,103.0,101.0,13.4,1505.2,326.0,-0.8,1.8,2471.438,13.29,0.025,334.4
2023-07-24T10:28:03,42.805,6.029,0.0,0.002,-0.036,102.0,101.0,101.0,13.4,1505.2,334.5,-0.8,1.8,2471.452,13.29,0.002,0.0
2023-07-24T10:31:03,42.805,6.029,-0.014,0.003,-0.075,102.0,101.0,102.0,13.3,1505.2,332.4,-0.8,1.8,2471.488,13.29,0.014,282.1
2023-07-24T10:34:03,42.805,6.029,-0.041,0.045,0.022,103.0,102.0,100.0,13.4,1505.2,332.4,-0.8,1.8,2471.435,13.29,0.06,317.7
2023-07-24T10:37:03,42.805,6.029,-0.027,0.02,-0.048,103.0,103.0,101.0,13.3,1505.2,353.0,-0.8,1.8,2471.432,13.29,0.033,306.5
2023-07-24T10:40:03,42.805,6.029,-0.023,0.036,-0.019,102.0,101.0,101.0,13.3,1505.2,340.3,-0.8,1.8,2471.4,13.29,0.042,327.4
2023-07-24T10:43:03,42.805,6.029,-0.029,0.015,-0.027,101.0,103.0,101.0,13.4,1505.2,330.2,-0.8,1.8,2471.428,13.29,0.032,297.4
2023-07-24T10:46:03,42.805,6.029,-0.019,0.019,-0.056,102.0,101.0,102.0,13.4,1505.2,335.2,-0.8,1.8,2471.404,13.29,0.026,315.0
2023-07-24T10:49:03,42.805,6.029,-0.012,0.026,-0.014,101.0,102.0,101.0,13.4,1505.2,331.0,-0.7,1.8,2471.394,13.29,0.028,335.2
2023-07-24T10:52:03,42.805,6.029,-0.027,0.036,0.001,101.0,101.0,101.0,13.3,1505.2,354.2,-0.8,1.8,2471.396,13.29,0.045,323.1
2023-07-24T10:55:03,42.805,6.029,-0.051,0.0,-0.08,102.0,101.0,101.0,13.4,1505.2,325.5,-0.8,1.8,2471.425,13.29,0.051,270.0
2023-07-24T10:58:03,42.805,6.029,0.0,-0.007,-0.061,101.0,101.0,101.0,13.3,1505.2,340.0,-0.8,1.8,2471.387,13.29,0.007,180.0
2023-07-24T11:04:03,42.805,6.029,-0.031,0.02,-0.037,100.0,102.0,101.0,13.4,1505.2,350.5,-0.8,1.8,2471.438,13.29,0.036,302.8
2023-07-24T11:07:03,42.805,6.029,-0.024,0.0,-0.066,102.0,101.0,101.0,13.4,1505.2,336.8,-0.7,1.8,2471.456,13.29,0.024,270.0
2023-07-24T11:10:03,42.805,6.029,-0.007,-0.003,-0.052,101.0,101.0,102.0,13.3,1505.2,333.4,-0.8,1.8,2471.466,13.29,0.007,246.8
2023-07-24T11:13:03,42.805,6.029,-0.035,0.015,-0.073,102.0,101.0,101.0,13.4,1505.2,340.8,-0.8,1.8,2471.465,13.29,0.038,293.2
2023-07-24T11:16:03,42.805,6.029,-0.056,0.016,-0.06,101.0,103.0,100.0,13.4,1505.2,338.3,-0.8,1.8,2471.421,13.29,0.058,285.9
2023-07-24T11:19:03,42.805,6.029,-0.014,0.012,-0.038,101.0,102.0,102.0,13.4,1505.2,341.9,-0.8,1.8,2471.431,13.29,0.018,310.6
2023-07-24T11:22:03,42.805,6.029,-0.025,0.016,-0.028,102.0,102.0,101.0,13.3,1505.2,328.4,-0.8,1.8,2471.414,13.29,0.029,302.6
2023-07-24T11:25:03,42.805,6.029,0.02,-0.021,-0.046,103.0,102.0,101.0,13.3,1505.2,328.4,-0.8,1.8,2471.403,13.29,0.028,136.4
2023-07-24T11:28:03,42.805,6.029,-0.017,0.005,-0.037,103.0,101.0,102.0,13.4,1505.2,343.4,-0.8,1.8,2471.412,13.29,0.017,286.4
2023-07-24T11:31:03,42.805,6.029,-0.023,0.013,-0.02,102.0,102.0,102.0,13.3,1505.2,325.3,-0.8,1.8,2471.388,13.29,0.026,299.5
2023-07-24T11:34:03,42.805,6.029,0.0,-0.004,-0.026,102.0,101.0,102.0,13.4,1505.2,347.3,-0.7,1.8,2471.409,13.29,0.004,180.0
2023-07-24T11:37:03,42.805,6.029,-0.009,0.036,-0.037,101.0,102.0,102.0,13.3,1505.2,344.6,-0.7,1.9,2471.396,13.29,0.037,346.0
2023-07-24T11:40:03,42.805,6.029,-0.005,0.01,-0.044,102.0,104.0,101.0,13.4,1505.2,331.6,-0.8,1.8,2471.369,13.29,0.011,333.4
2023-07-24T11:43:03,42.805,6.029,0.0,0.004,0.004,102.0,101.0,101.0,13.3,1505.2,346.2,-0.8,1.8,2471.406,13.29,0.004,0.0
2023-07-24T11:46:03,42.805,6.029,-0.01,0.027,-0.026,103.0,102.0,101.0,13.4,1505.2,351.5,-0.8,1.8,2471.435,13.29,0.028,339.7
2023-07-24T11:49:03,42.805,6.029,-0.004,0.01,-0.05,102.0,102.0,101.0,13.4,1505.2,345.9,-0.8,1.8,2471.394,13.29,0.01,338.2
2023-07-24T11:52:03,42.805,6.029,-0.019,0.019,-0.041,102.0,102.0,101.0,13.4,1505.2,342.6,-0.8,1.8,2471.366,13.29,0.026,315.0
2023-07-24T11:55:03,42.805,6.029,-0.036,0.034,-0.037,102.0,102.0,102.0,13.4,1505.2,345.0,-0.8,1.8,2471.332,13.29,0.049,313.4
2023-07-24T11:58:03,42.805,6.029,-0.03,0.002,-0.05,102.0,103.0,102.0,13.4,1505.2,326.3,-0.7,1.8,2471.389,13.29,0.03,273.8